Airfield :
LOGIN :

Register | Disclaimer

   EN    FR    IT 

 










Legend :    VFR   Marginal VFR   IFR   Intensive IFR   Very Intensive IFR
Visi :
Ceiling :
>= 8 km
>= 3000ft
5 to 8 km
1000 to 3000 ft
1500m to 5 km
500 to 1000 ft
800 to 1500m
200 to 500 ft
< 800m
< 200 ft
Symbols :   Thunderstorms  Fog  Heavy snow  Heavy precipitations  Wind > 20 kt
SIGMETs :     Misc.  Thunderstorms  Icing  Turbulence  Mountain Waves  Volcanic Ashes






- Airport Elevation : 339 ft
- IATA code : UTI


EFUT - Utti Air Base

CURRENT METAR :
  • 240150Z AUTO 18007KT 0500 R25/0600N FG SCT012 11/11 Q1006

EXPIRED METARs :
  • 240120Z AUTO 18006KT 0500 R25/0550N FG SCT013 11/11 Q1006
  • 240050Z AUTO 17006KT 0300 R25/0350N FG OVC013 11/11 Q1006
  • 240020Z AUTO 16004KT 0250 R25/0250 FG FEW004 BKN014 10/10 Q1006
  • 232350Z AUTO 14003KT 0400 R25/0350 FG FEW017 11/11 Q1006
  • 232320Z AUTO VRB02KT 0800 R25/2000N FG FEW021 11/11 Q1006

Expired Forecast.



MET'MAP, your aeronautical weather chart ! - Copyright ORBIFLY December 2007 - Disclaimer

ORBIFLY MET'MAP TEAM :

Programming & Development : Alexandra Zaïnal
Concept & original design : Baudouin d'Aumeries
Assistance for programming : Marc-Olivier Méhu
Technical & hardware support : Manuel Goepfert

Contact : metmap@orbifly.com




SOURCES & CREDITS :

   NOAA